Retour au catalogue

GORIZONT 4

ActifCommunicationsGEO
NORAD 11841·PAYLOAD·🇷🇺 Russia

Lancé Jun 14, 1980 depuis Baikonur Cosmodrome

Loading…

TLE

FraisSource: Space-Track

Époque: Sep 14, 2026, 12:50 UTC

1 11841U 80049A   26257.53537828 -.00000248  00000-0  00000-0 0  9994
2 11841   6.9807 294.6146 0003777 345.8617  68.5020  0.98632375234404

Suivez GORIZONT 4 en temps réel avec AllMySat

Download on the App Store